Time,TemperatureF,DewpointF,PressureIn,WindDirection,WindDirectionDegrees,WindSpeedMPH,WindSpeedGustMPH,Humidity,HourlyPrecipIn,Conditions,Clouds,dailyrainin,SolarRadiationWatts/m^2,SoftwareType,DateUTC
2013-07-01 00:24:00,46.0,42.0,-100.00,WNW,283,3.0,7.0,86,0.00,,,0.06,0.000000,,2013-07-01 06:24:00,
2013-07-01 00:33:00,46.0,42.0,-100.00,WNW,283,3.0,7.0,86,0.00,,,0.06,0.000000,,2013-07-01 06:33:00,
2013-07-01 00:43:00,46.0,42.0,-100.00,WNW,283,3.0,7.0,86,0.00,,,0.06,0.000000,,2013-07-01 06:43:00,
2013-07-01 00:53:00,46.0,42.0,-100.00,WNW,283,3.0,7.0,86,0.00,,,0.06,0.000000,,2013-07-01 06:53:00,
2013-07-01 01:22:00,47.0,41.0,-100.00,West,277,3.0,6.0,78,0.00,,,0.06,0.000000,,2013-07-01 07:22:00,
2013-07-01 01:33:00,47.0,41.0,-100.00,West,277,3.0,6.0,78,0.00,,,0.06,0.000000,,2013-07-01 07:33:00,
2013-07-01 01:43:00,47.0,41.0,-100.00,West,277,3.0,6.0,78,0.00,,,0.06,0.000000,,2013-07-01 07:43:00,
2013-07-01 01:53:00,47.0,41.0,-100.00,West,277,3.0,6.0,78,0.00,,,0.06,0.000000,,2013-07-01 07:53:00,
2013-07-01 02:33:00,45.0,39.0,-100.00,North,8,2.0,4.0,79,0.00,,,0.06,0.000000,,2013-07-01 08:33:00,
2013-07-01 02:42:00,45.0,39.0,-100.00,North,8,2.0,4.0,79,0.00,,,0.06,0.000000,,2013-07-01 08:42:00,
2013-07-01 02:52:00,45.0,39.0,-100.00,North,8,2.0,4.0,79,0.00,,,0.06,0.000000,,2013-07-01 08:52:00,
2013-07-01 03:22:00,45.0,40.0,-100.00,WNW,300,2.0,5.0,82,0.00,,,0.06,0.000000,,2013-07-01 09:22:00,
2013-07-01 03:34:00,45.0,40.0,-100.00,WNW,300,2.0,5.0,82,0.00,,,0.06,0.000000,,2013-07-01 09:34:00,
2013-07-01 03:43:00,45.0,40.0,-100.00,WNW,300,2.0,5.0,82,0.00,,,0.06,0.000000,,2013-07-01 09:43:00,
2013-07-01 03:53:00,45.0,40.0,-100.00,WNW,300,2.0,5.0,82,0.00,,,0.06,0.000000,,2013-07-01 09:53:00,
2013-07-01 04:22:00,45.0,38.0,-100.00,NNW,329,1.0,4.0,76,0.00,,,0.06,0.000000,,2013-07-01 10:22:00,
2013-07-01 04:33:00,45.0,38.0,-100.00,NNW,329,1.0,4.0,76,0.00,,,0.06,0.000000,,2013-07-01 10:33:00,
2013-07-01 04:42:00,45.0,38.0,-100.00,NNW,329,1.0,4.0,76,0.00,,,0.06,0.000000,,2013-07-01 10:42:00,
2013-07-01 04:52:00,45.0,38.0,-100.00,NNW,329,1.0,4.0,76,0.00,,,0.06,0.000000,,2013-07-01 10:52:00,
2013-07-01 05:22:00,44.0,39.0,-100.00,NNW,327,0.0,3.0,83,0.00,,,0.06,0.000000,,2013-07-01 11:22:00,
2013-07-01 05:33:00,44.0,39.0,-100.00,NNW,327,0.0,3.0,83,0.00,,,0.06,0.000000,,2013-07-01 11:33:00,
2013-07-01 05:43:00,44.0,39.0,-100.00,NNW,327,0.0,3.0,83,0.00,,,0.06,0.000000,,2013-07-01 11:43:00,
2013-07-01 05:52:00,44.0,39.0,-100.00,NNW,327,0.0,3.0,83,0.00,,,0.06,0.000000,,2013-07-01 11:52:00,
2013-07-01 06:22:00,44.0,38.0,-100.00,ENE,69,1.0,4.0,80,0.00,,,0.06,2.000000,,2013-07-01 12:22:00,
2013-07-01 06:33:00,44.0,38.0,-100.00,ENE,69,1.0,4.0,80,0.00,,,0.06,2.000000,,2013-07-01 12:33:00,
2013-07-01 06:43:00,44.0,38.0,-100.00,ENE,69,1.0,4.0,80,0.00,,,0.06,2.000000,,2013-07-01 12:43:00,
2013-07-01 06:53:00,44.0,38.0,-100.00,ENE,69,1.0,4.0,80,0.00,,,0.06,2.000000,,2013-07-01 12:53:00,
2013-07-01 07:33:00,49.0,41.0,-100.00,South,179,1.0,3.0,73,0.00,,,0.06,56.000000,,2013-07-01 13:33:00,
2013-07-01 07:43:00,49.0,41.0,-100.00,South,179,1.0,3.0,73,0.00,,,0.06,56.000000,,2013-07-01 13:43:00,
2013-07-01 07:53:00,49.0,41.0,-100.00,South,179,1.0,3.0,73,0.00,,,0.06,56.000000,,2013-07-01 13:53:00,
2013-07-01 08:34:00,56.0,44.0,-100.00,SE,135,3.0,5.0,63,0.00,,,0.06,278.000000,,2013-07-01 14:34:00,
2013-07-01 08:43:00,56.0,44.0,-100.00,SE,135,3.0,5.0,63,0.00,,,0.06,278.000000,,2013-07-01 14:43:00,
2013-07-01 08:52:00,56.0,44.0,-100.00,SE,135,3.0,5.0,63,0.00,,,0.06,278.000000,,2013-07-01 14:52:00,
2013-07-01 09:23:00,60.0,45.0,-100.00,SE,128,3.0,5.0,57,0.00,,,0.06,486.000000,,2013-07-01 15:23:00,
2013-07-01 09:34:00,60.0,45.0,-100.00,SE,128,3.0,5.0,57,0.00,,,0.06,486.000000,,2013-07-01 15:34:00,
2013-07-01 09:43:00,60.0,45.0,-100.00,SE,128,3.0,5.0,57,0.00,,,0.06,486.000000,,2013-07-01 15:43:00,
2013-07-01 09:52:00,60.0,45.0,-100.00,SE,128,3.0,5.0,57,0.00,,,0.06,486.000000,,2013-07-01 15:52:00,
2013-07-01 10:33:00,65.0,39.0,-100.00,East,83,4.0,7.0,39,0.00,,,0.06,670.000000,,2013-07-01 16:33:00,
2013-07-01 10:44:00,65.0,39.0,-100.00,East,83,4.0,7.0,39,0.00,,,0.06,670.000000,,2013-07-01 16:44:00,
2013-07-01 10:53:00,65.0,39.0,-100.00,East,83,4.0,7.0,39,0.00,,,0.06,670.000000,,2013-07-01 16:53:00,
2013-07-01 11:23:00,69.0,38.0,-100.00,ENE,78,5.0,12.0,32,0.00,,,0.06,812.000000,,2013-07-01 17:23:00,
2013-07-01 11:33:00,69.0,38.0,-100.00,ENE,78,5.0,12.0,32,0.00,,,0.06,812.000000,,2013-07-01 17:33:00,
2013-07-01 11:43:00,69.0,38.0,-100.00,ENE,78,5.0,12.0,32,0.00,,,0.06,812.000000,,2013-07-01 17:43:00,
2013-07-01 11:53:00,69.0,38.0,-100.00,ENE,78,5.0,12.0,32,0.00,,,0.06,812.000000,,2013-07-01 17:53:00,
2013-07-01 12:22:00,71.0,32.0,-100.00,NE,38,6.0,12.0,24,0.00,,,0.06,913.000000,,2013-07-01 18:22:00,
2013-07-01 12:33:00,71.0,32.0,-100.00,NE,38,6.0,12.0,24,0.00,,,0.06,913.000000,,2013-07-01 18:33:00,
2013-07-01 12:43:00,71.0,32.0,-100.00,NE,38,6.0,12.0,24,0.00,,,0.06,913.000000,,2013-07-01 18:43:00,
2013-07-01 12:53:00,71.0,32.0,-100.00,NE,38,6.0,12.0,24,0.00,,,0.06,913.000000,,2013-07-01 18:53:00,
2013-07-01 13:22:00,71.0,32.0,-100.00,ENE,67,7.0,16.0,24,0.00,,,0.06,934.000000,,2013-07-01 19:22:00,
2013-07-01 13:33:00,71.0,32.0,-100.00,ENE,67,7.0,16.0,24,0.00,,,0.06,934.000000,,2013-07-01 19:33:00,
2013-07-01 13:44:00,71.0,32.0,-100.00,ENE,67,7.0,16.0,24,0.00,,,0.06,934.000000,,2013-07-01 19:44:00,
2013-07-01 13:52:00,71.0,32.0,-100.00,ENE,67,7.0,16.0,24,0.00,,,0.06,934.000000,,2013-07-01 19:52:00,
2013-07-01 14:22:00,73.0,37.0,-100.00,SSE,158,9.0,16.0,27,0.00,,,0.06,690.000000,,2013-07-01 20:22:00,
2013-07-01 14:34:00,73.0,37.0,-100.00,SSE,158,9.0,16.0,27,0.00,,,0.06,690.000000,,2013-07-01 20:34:00,
2013-07-01 14:43:00,73.0,37.0,-100.00,SSE,158,9.0,16.0,27,0.00,,,0.06,690.000000,,2013-07-01 20:43:00,
2013-07-01 14:52:00,73.0,37.0,-100.00,SSE,158,9.0,16.0,27,0.00,,,0.06,690.000000,,2013-07-01 20:52:00,
2013-07-01 15:24:00,68.0,39.0,-100.00,East,94,9.0,19.0,35,0.00,,,0.06,724.000000,,2013-07-01 21:24:00,
2013-07-01 15:34:00,68.0,39.0,-100.00,East,94,9.0,19.0,35,0.00,,,0.06,724.000000,,2013-07-01 21:34:00,
2013-07-01 15:43:00,68.0,39.0,-100.00,East,94,9.0,19.0,35,0.00,,,0.06,724.000000,,2013-07-01 21:43:00,
2013-07-01 15:53:00,68.0,39.0,-100.00,East,94,9.0,19.0,35,0.00,,,0.06,724.000000,,2013-07-01 21:53:00,
2013-07-01 16:33:00,68.0,40.0,-100.00,ENE,71,5.0,17.0,36,0.00,,,0.05,590.000000,,2013-07-01 22:33:00,
2013-07-01 16:43:00,68.0,40.0,-100.00,ENE,71,5.0,17.0,36,0.00,,,0.05,590.000000,,2013-07-01 22:43:00,
2013-07-01 16:53:00,68.0,40.0,-100.00,ENE,71,5.0,17.0,36,0.00,,,0.05,590.000000,,2013-07-01 22:53:00,
2013-07-01 17:22:00,64.0,39.0,-100.00,East,87,5.0,20.0,40,0.00,,,0.04,373.000000,,2013-07-01 23:22:00,
2013-07-01 17:33:00,64.0,39.0,-100.00,East,87,5.0,20.0,40,0.00,,,0.04,373.000000,,2013-07-01 23:33:00,
2013-07-01 17:44:00,64.0,39.0,-100.00,East,87,5.0,20.0,40,0.00,,,0.04,373.000000,,2013-07-01 23:44:00,
2013-07-01 17:53:00,64.0,39.0,-100.00,East,87,5.0,20.0,40,0.00,,,0.04,373.000000,,2013-07-01 23:53:00,
2013-07-01 18:34:00,55.0,45.0,-100.00,North,353,6.0,13.0,69,0.02,,,0.06,110.000000,,2013-07-02 00:34:00,
2013-07-01 18:43:00,55.0,45.0,-100.00,North,353,6.0,13.0,69,0.02,,,0.06,110.000000,,2013-07-02 00:43:00,
2013-07-01 18:53:00,55.0,45.0,-100.00,North,353,6.0,13.0,69,0.02,,,0.06,110.000000,,2013-07-02 00:53:00,
2013-07-01 19:33:00,58.0,45.0,-100.00,SSW,197,5.0,11.0,61,0.01,,,0.07,325.000000,,2013-07-02 01:33:00,
2013-07-01 19:43:00,58.0,45.0,-100.00,SSW,197,5.0,11.0,61,0.01,,,0.07,325.000000,,2013-07-02 01:43:00,
2013-07-01 19:53:00,58.0,45.0,-100.00,SSW,197,5.0,11.0,61,0.01,,,0.07,325.000000,,2013-07-02 01:53:00,
2013-07-01 20:22:00,56.0,45.0,-100.00,SSE,152,6.0,12.0,67,0.00,,,0.07,179.000000,,2013-07-02 02:22:00,
2013-07-01 20:33:00,56.0,45.0,-100.00,SSE,152,6.0,12.0,67,0.00,,,0.07,179.000000,,2013-07-02 02:33:00,
2013-07-01 20:43:00,56.0,45.0,-100.00,SSE,152,6.0,12.0,67,0.00,,,0.07,179.000000,,2013-07-02 02:43:00,
2013-07-01 20:53:00,56.0,45.0,-100.00,SSE,152,6.0,12.0,67,0.00,,,0.07,179.000000,,2013-07-02 02:53:00,
2013-07-01 21:24:00,50.0,45.0,-100.00,North,9,0.0,11.0,83,0.00,,,0.07,13.000000,,2013-07-02 03:24:00,
2013-07-01 21:32:00,50.0,45.0,-100.00,North,9,0.0,11.0,83,0.00,,,0.07,13.000000,,2013-07-02 03:32:00,
2013-07-01 21:43:00,50.0,45.0,-100.00,North,9,0.0,11.0,83,0.00,,,0.07,13.000000,,2013-07-02 03:43:00,
2013-07-01 21:53:00,50.0,45.0,-100.00,North,9,0.0,11.0,83,0.00,,,0.07,13.000000,,2013-07-02 03:53:00,
2013-07-01 22:22:00,49.0,45.0,-100.00,West,261,5.0,9.0,85,0.01,,,0.04,0.000000,,2013-07-02 04:22:00,
2013-07-01 22:32:00,49.0,45.0,-100.00,West,261,5.0,9.0,85,0.01,,,0.04,0.000000,,2013-07-02 04:32:00,
2013-07-01 22:42:00,49.0,45.0,-100.00,West,261,5.0,9.0,85,0.01,,,0.04,0.000000,,2013-07-02 04:42:00,
2013-07-01 22:53:00,49.0,45.0,-100.00,West,261,5.0,9.0,85,0.01,,,0.04,0.000000,,2013-07-02 04:53:00,
2013-07-01 23:22:00,47.0,43.0,-100.00,NNW,333,2.0,7.0,85,0.00,,,0.04,0.000000,,2013-07-02 05:22:00,
2013-07-01 23:32:00,47.0,43.0,-100.00,NNW,333,2.0,7.0,85,0.00,,,0.04,0.000000,,2013-07-02 05:32:00,
2013-07-01 23:43:00,47.0,43.0,-100.00,NNW,333,2.0,7.0,85,0.00,,,0.04,0.000000,,2013-07-02 05:43:00,
2013-07-01 23:53:00,47.0,43.0,-100.00,NNW,333,2.0,7.0,85,0.00,,,0.04,0.000000,,2013-07-02 05:53:00,